weather.gov     
National Weather Service

Regional Weather Roundup
NWS Homepage
This page is being discontinued on March 12, 2014.
The same data is available at this site. Please update your bookmarks.
Thank you, and we apologize for the inconvenience.
Please send an email to SR-SRH.Webmaster@noaa.gov with any concerns.


Current Version
Previous Version:    01  02  03  04  05  06  07  08  09  10  11  12  13  14  15  16  17  18  19  20  21  22  23  24  25  26  
[Printable]
244
ASUS45 KBOU 260207
RWRCO

WEATHER ROUNDUP FOR COLORADO
NATIONAL WEATHER SERVICE DENVER/BOULDER CO
700 PM MST SUN JAN 25 2015

NOTE: "FAIR" INDICATES FEW OR NO CLOUDS BELOW 12000 FEET WITH NO
SIGNIFICANT WEATHER AND/OR OBSTRUCTIONS TO VISIBILITY.

COZ001>005-013-030-031-260300-
...NORTHWEST COLORADO...

CITY           SKY/WX    TMP DP  RH WIND       PRES   REMARKS
CRAIG          CLEAR     28  23  81 SE3       30.40R
HAYDEN         PTCLDY    34  25  69 SE8       30.39R WCI  27
MEEKER         PTCLDY    23  19  85 CALM      30.38R
MOUNT WERNER   NOT AVBL
STEAMBOAT SPGS PTCLDY    32  26  79 CALM      30.41R
WALDEN         CLEAR     30  23  74 SE5       30.37S WCI  25
$$

COZ006>008-011-260300-
...WEST CENTRAL VALLEYS...

CITY           SKY/WX    TMP DP  RH WIND       PRES   REMARKS
GRAND JUNCTION PTCLDY    34  23  64 NE5       30.35R WCI  30
MONTROSE       MOCLDY    32  18  56 SE8       30.38R WCI  25
EAGLE          PTCLDY    36  27  69 NE6       30.42R
RIFLE          CLEAR     36  26  67 S6        30.37R
DELTA          NOT AVBL
NUCLA          MOCLDY    45  23  42 NW8       30.35S
$$

COZ017>023-064>068-260300-
...SOUTHWEST COLORADO...

CITY           SKY/WX    TMP DP  RH WIND       PRES   REMARKS
DURANGO        PTCLDY    37  24  59 N3        30.29R
CORTEZ         CLEAR     35  22  58 CALM      30.27S
PAGOSA SPRINGS PTCLDY    30  20  67 CALM      30.33R
TELLURIDE      MOCLDY    37  22  55 CALM      30.40S
WOLF CREEK PAS NOT AVBL
$$

COZ009-010-012-014-032>034-037-058>063-260300-
...CENTRAL COLORADO...

CITY           SKY/WX    TMP DP  RH WIND       PRES   REMARKS
ASPEN          PTCLDY    30  22  72 S7        30.41R WCI  23
BUENA VISTA    PTCLDY    42  22  44 NW24G36   30.29S
COPPER MTN     CLEAR     28  19  69 W18       30.49R WCI  16
BERTHOUD PASS  MOCLDY    19  12  73 NW21      30.46R WCI   3
COTTONWOOD PAS PTCLDY    37  18  44 N9        30.38R
GUNNISON       PTCLDY    14   7  73 CALM      30.44R
KREMMLING      PTCLDY    30  27  86 CALM      30.42R
LEADVILLE      PTCLDY    28  18  66 N9        30.41R WCI  19
SALIDA         PTCLDY    42  21  43 NW5       30.39R
SUNLIGHT       CLEAR     32  25  74 N7        30.47F WCI  26
WILKERSON PASS PTCLDY    32  14  47 N15G30    30.41R WCI  22
$$

COZ069>075-260300-
...SAN LUIS VALLEY/SANGRE DE CRISTO MOUNTAINS...

CITY           SKY/WX    TMP DP  RH WIND       PRES   REMARKS
ALAMOSA        MOCLDY    32  18  56 NW6       30.32R WCI  26
LA VETA PASS   NOT AVBL
SAGUACHE       PTCLDY    36  25  64 N10       30.34R
$$

COZ035-036-038>040-260300-
...NORTHERN COLORADO FRONT RANGE...

CITY           SKY/WX    TMP DP  RH WIND       PRES   REMARKS
DENVER INTL AP PTCLDY    47  24  40 SW3       30.18R
DMNS CITY PARK   N/A     51  21  30 NW3       30.18R
AURORA         PTCLDY    48  22  36 W6        30.19R
FRONT RANGE AP NOT AVBL
ERIE MUNI ARPT CLEAR     42  25  50 SW5       30.17R
BOULDER MUN AP CLEAR     52  23  32 W7        30.16S
CENTENNIAL     PTCLDY    48  22  35 W8        30.19R
BROOMFIELD     PTCLDY    50  25  37 W17       30.19R
FORT COLLINS   CLEAR     45  28  53 SE6       30.18R
LONGMONT       CLEAR     40  24  53 N3        30.18S
$$

COZ041-046-047-076>085-087-088-260300-
...PIKES PEAK/PALMER DIVIDE AND SOUTHERN FOOTHILLS...

CITY           SKY/WX    TMP DP  RH WIND       PRES   REMARKS
COLO. SPRINGS  PTCLDY    37  25  61 NW5       30.23R
A. F. ACADEMY  CLEAR     32  25  74 N8        30.23R WCI  25
ELLICOTT       CLEAR    N/A N/A N/A NE3       30.21R
FALCON         CLEAR     36  25  64 W8        30.24S
FORT CARSON    CLEAR     39  25  57 NW8       30.20R
LIMON          CLEAR     33  26  75 NW3       30.20R
MONUMENT HILL  CLEAR     36  27  69 SW8       30.23R
TRINIDAD       CLEAR     37  27  67 W6        30.21R
$$

COZ042>045-048>051-090-091-260300-
...NORTHEAST COLORADO...

CITY           SKY/WX    TMP DP  RH WIND       PRES   REMARKS
GREELEY ARPT   CLEAR     39  25  56 SE3       30.15R
AKRON          CLEAR     36  29  75 W8        30.15R
BURLINGTON     CLEAR     36  30  79 W10       30.14S
WRAY           MOCLDY    38  31  78 SW9       30.12R
STERLING       CLEAR     41  32  70 W7        30.12S
HOLYOKE        MOCLDY    37  30  75 W10       30.10S
FORT MORGAN    CLEAR     40  28  63 NW6       30.15S
$$

COZ086-089-092>099-260300-
...SOUTHEAST COLORADO...

CITY           SKY/WX    TMP DP  RH WIND       PRES   REMARKS
PUEBLO         CLEAR     37  29  72 NW3       30.19R
LA JUNTA       CLEAR     44  31  60 SW7       30.16R
LAMAR          CLEAR     37  31  78 SW10      30.14R
SPRINGFIELD      N/A     33  28  81 W7        30.18R WCI  27
$$




U.S. Dept. of Commerce
NOAA National Weather Service
1325 East West Highway
Silver Spring, MD 20910
E-mail: w-nws.webmaster@noaa.gov
Page last modified: May 16, 2007
NATIONAL WEATHER SERVICE: for Safety, for Work, for Fun - FOR LIFE